Date,TemperatureHighF,TemperatureAvgF,TemperatureLowF,DewpointHighF,DewpointAvgF,DewpointLowF,HumidityHigh,HumidityAvg,HumidityLow,PressureMaxIn,PressureMinIn,WindSpeedMaxMPH,WindSpeedAvgMPH,GustSpeedMaxMPH,PrecipitationSumIn
2013-2-1,31.2,28.2,22.9,18.3,8.1,1.2,70,43,29,30.27,29.83,29,8,29,0.00
2013-2-2,29.8,24.2,17.8,21.6,7.9,1.9,89,51,33,30.32,30.04,22,4,22,0.00
2013-2-3,31.9,26.2,22.5,24.9,20.4,17.3,92,79,59,30.04,29.80,13,1,13,0.00
2013-2-4,29.7,26.0,21.6,24.7,11.4,7.4,90,54,40,30.02,29.84,25,6,25,0.00
2013-2-5,32.9,30.4,27.6,29.6,26.4,19.2,91,85,68,29.96,29.88,9,2,9,0.00
2013-2-6,40.3,33.2,25.8,29.8,22.9,13.9,95,68,42,30.35,29.91,23,4,23,0.01
2013-2-7,34.9,28.9,22.5,24.4,15.9,10.2,74,58,46,30.48,30.27,13,2,13,0.00
2013-2-8,39.5,35.3,30.4,36.1,32.4,24.4,96,89,69,30.27,29.64,23,8,25,0.58
2013-2-9,33.4,28.3,21.9,31.1,17.3,7.2,100,66,40,30.36,29.76,29,9,31,0.03
2013-2-10,39.2,27.0,14.3,22.7,11.5,4.5,76,54,28,30.49,30.31,11,1,11,0.02
2013-2-11,50.2,40.3,31.0,49.9,38.3,22.7,99,93,71,30.31,29.64,16,1,18,0.31
2013-2-12,46.5,41.4,31.5,41.3,25.7,21.8,88,54,41,29.98,29.75,29,7,29,0.00
2013-2-13,44.2,34.5,24.8,31.9,26.1,21.8,96,73,47,29.96,29.67,11,2,11,0.02
2013-2-14,47.0,37.4,30.9,35.0,30.6,26.8,98,79,47,30.02,29.70,12,1,14,0.19
2013-2-15,57.5,42.9,30.4,36.1,31.9,25.8,94,69,35,30.02,29.90,19,2,20,0.01
2013-2-16,41.6,35.9,30.6,33.9,25.9,10.3,92,69,44,29.96,29.74,22,5,23,0.01
2013-2-17,31.5,27.7,21.0,11.1,4.4,-2.2,44,36,28,30.06,29.70,32,11,33,0.01
2013-2-18,36.8,26.9,18.9,13.7,5.7,-0.7,51,40,28,30.28,30.06,26,7,28,0.00
2013-2-19,49.8,39.3,28.8,43.9,30.1,11.8,95,71,46,30.20,29.69,26,4,27,0.21
2013-2-20,38.3,30.5,25.6,25.2,13.1,7.2,62,48,38,30.03,29.76,32,10,33,0.00
2013-2-21,35.9,29.1,24.4,15.3,12.3,9.1,59,49,39,30.28,30.01,32,9,32,0.00
2013-2-22,37.8,30.6,22.9,30.3,21.0,12.8,88,67,56,30.40,30.25,12,3,12,0.00
2013-2-23,46.4,40.8,33.5,45.9,39.9,30.3,100,97,88,30.25,29.85,20,3,20,0.16
2013-2-25,30.7,29.8,29.1,25.1,24.8,24.3,84,81,78,30.23,30.20,3,0,3,0.00
2013-2-26,45.1,35.7,25.4,38.2,29.3,22.9,93,78,54,30.25,29.79,28,7,33,0.25
2013-2-27,42.5,41.4,40.1,41.0,39.7,37.7,95,94,92,29.79,29.65,26,14,29,0.17